Flag for Russia Weather past 2 weeks in Yekaterinburg, Russia

Now
55 °F

Sleet. Mostly cloudy.


Feels Like: 52 °F
Forecast: 42 / 45 °F
Wind: 13 mph from Northwest

Location: Ekaterinburg

Current Time: Aug 30, 2015 at 7:12:07 PM

Latest Report: Aug 30, 2015 at 6:30 PM


Visibility: 2 mi

Pressure: 29.27 "Hg

Humidity: 94%

Dew point: 54 °F

Location of YekaterinburgLocation

Historic Weather in Yekaterinburg — Graph

°F

Yekaterinburg temperature yesterday

Maximum temperature yesterday: 59 °F (at 1:30 PM)
Minimum temperature yesterday: 39 °F (at 11:30 PM)
Average temperature yesterday: 52 °F

Past Weeks' High & Low Weather Summary

 TemperatureHumidityPressure
High70 °F (Aug 16, 1:00 PM)100% (Aug 16, 3:30 AM)29.98 "Hg (Aug 16, 3:30 AM)
Low34 °F (Aug 26, 5:00 AM)43% (Aug 16, 2:00 PM)29.30 "Hg (Aug 30, 4:30 PM)
Average52 °F87%29.81 "Hg
* Reported Aug 15 6:00 PM — Aug 30 6:00 PM, Yekaterinburg, Weather by CustomWeather, © 2015

Note: Actual official high and low records may vary slightly from our data, if they occured in-between our weather recording intervals... More about our weather records

Advertising

Yekaterinburg weather history for previous 24 hours

 ConditionsComfort  
Time TempWeatherWind HumidityBarometerVisibility
6:00 PM
Sun, Aug 30
55 °FMostly cloudy.6 mph100%29.30 "Hg4 mi
5:30 PM59 °FMostly cloudy.6 mph94%29.30 "Hg6 mi
5:00 PM57 °FMostly cloudy.3 mph100%29.30 "Hg5 mi
4:30 PM57 °FLow clouds.1 mph100%29.30 "HgN/A
4:00 PM55 °FLow clouds.3 mph100%29.33 "HgN/A
3:30 PM54 °FSprinkles. Low clouds.3 mph100%29.33 "Hg4 mi
3:00 PM54 °FLow clouds.6 mph100%29.33 "HgN/A
2:30 PM52 °FSprinkles. Low clouds.3 mph100%29.36 "Hg6 mi
2:00 PM52 °FSprinkles. Low clouds.3 mph94%29.36 "Hg4 mi
1:30 PM50 °FSprinkles. Low clouds.8 mph100%29.39 "Hg2 mi
1:00 PM50 °FSprinkles. Low clouds.10 mph100%29.39 "Hg3 mi
12:30 PM50 °FSprinkles. Low clouds.10 mph100%29.39 "Hg3 mi
12:00 PM48 °FSprinkles. Low clouds.10 mph100%29.42 "Hg6 mi
11:30 AM48 °FSprinkles. Low clouds.10 mph100%29.45 "Hg4 mi
11:00 AM48 °FSprinkles. Low clouds.15 mph100%29.45 "Hg2 mi
10:30 AM46 °FSprinkles. Low clouds.13 mph100%29.47 "Hg3 mi
10:00 AM46 °FSprinkles. Low clouds.13 mph100%29.50 "Hg5 mi
9:30 AM46 °FSprinkles. More clouds than sun.13 mph93%29.53 "Hg6 mi
8:30 AM45 °FSprinkles. Overcast.6 mph100%29.59 "Hg6 mi
8:00 AM45 °FSprinkles. Overcast.6 mph100%29.62 "Hg4 mi
7:30 AM45 °FSprinkles. Mostly cloudy.6 mph100%29.62 "Hg5 mi
7:00 AM45 °FSprinkles. Mostly cloudy.6 mph93%29.65 "Hg5 mi
6:30 AM45 °FSprinkles. Mostly cloudy.3 mph93%29.65 "HgN/A
6:00 AM45 °FSprinkles. Mostly cloudy.3 mph93%29.68 "Hg5 mi
5:30 AM45 °FSprinkles. Mostly cloudy.No wind93%29.68 "Hg4 mi
5:00 AM45 °FSprinkles. Mostly cloudy.1 mph93%29.68 "Hg5 mi
4:30 AM43 °FLight rain. Mostly cloudy.3 mph100%29.71 "Hg6 mi
4:00 AM43 °FClear.1 mph100%29.71 "Hg10 mi
3:30 AM43 °FClear.1 mph93%29.74 "Hg10 mi
3:00 AM43 °FClear.1 mph93%29.74 "Hg10 mi
2:30 AM41 °FClear.1 mph100%29.74 "Hg10 mi
2:00 AM41 °FOvercast.1 mph100%29.74 "Hg6 mi
1:30 AM41 °FPassing clouds.1 mph93%29.77 "Hg6 mi
1:00 AM41 °FPassing clouds.1 mph100%29.77 "Hg6 mi
12:30 AM41 °FPassing clouds.1 mph100%29.80 "Hg6 mi
12:00 AM41 °FPartly cloudy.No wind93%29.80 "Hg6 mi
11:30 PM
Sat, Aug 29
39 °FPartly cloudy.No wind93%29.80 "Hg6 mi
11:00 PM41 °FClear.No wind93%29.80 "Hg10 mi
10:30 PM41 °FClear.No wind93%29.80 "Hg10 mi
10:00 PM41 °FClear.No wind93%29.83 "Hg10 mi
9:30 PM43 °FPartly cloudy.No wind87%29.83 "Hg6 mi
9:00 PM46 °FSunny.1 mph76%29.83 "Hg10 mi
8:30 PM50 °FSunny.3 mph71%29.80 "Hg10 mi
8:00 PM52 °FSunny.6 mph62%29.80 "Hg10 mi
7:30 PM54 °FSunny.8 mph63%29.80 "Hg10 mi
7:00 PM55 °FSunny.8 mph55%29.80 "Hg10 mi
Weather by CustomWeather, © 2015

See weather overviewHow to use our weather pages